Temp
45 40 34 37 39 41 40 36 33 37 46 45 42 46 50 55 56 55 58 58 61 65 70 71 74 76 74 73 72 70 68 68 67 66 64 64 63 65 65 66 67 67 67 67
40 36 42 46 45 41 38 35 34 41 47 47 43 44 51 51 52 55 58 61 60 62 67 70 71 71 75 73 72 72 71 70 68 69 69 69 67 66 67 67 67 67 67 67
37 40 49 45 41 40 37 35 35 37 42 44 41 39 44 55 55 57 58 60 60 61 63 66 69 68 71 74 73 73 72 71 70 72 71 66 64 62 65 65 67 67 68 68
39 45 44 42 40 40 32 43 42 40 35 28 40 29 43 47 53 55 56 55 55 57 61 63 66 68 66 73 76 75 74 73 72 72 71 69 68 66 69 69 69 69 68 68
36 40 40 38 40 43 39 45 42 40 33 31 34 29 38 47 46 50 54 57 57 57 57 60 62 64 67 66 72 76 75 74 74 71 73 70 70 71 72 70 69 68 67 69
39 45 43 42 45 44 47 42 40 37 34 27 34 32 31 38 44 49 54 56 58 59 60 62 64 65 65 65 62 65 75 74 74 72 71 71 70 71 70 69 68 68 68 67
36 38 43 46 39 44 41 35 26 26 26 26 38 33 36 47 49 52 52 54 57 59 60 60 61 62 63 64 63 62 69 73 74 73 71 72 72 72 71 70 69 68 68 67
27 29 38 45 38 35 36 34 23 15 22 25 37 29 34 49 53 53 53 55 57 57 59 58 59 60 60 62 62 62 62 69 73 73 71 72 73 73 72 72 71 70 70 70
28 29 41 43 43 40 37 31 39 29 30 27 30 35 46 48 50 49 48 51 53 55 56 56 58 58 59 60 60 61 61 62 67 70 71 71 72 72 72 70 69 71 71 70
34 26 38 41 44 44 39 43 30 30 23 22 28 30 30 42 46 49 47 48 51 53 55 55 56 57 58 59 60 60 61 61 62 63 67 69 71 71 71 68 67 69 69 69
33 31 32 37 34 32 34 32 33 34 30 22 22 28 43 41 45 45 47 51 51 52 53 54 56 57 58 58 58 57 58 59 60 61 63 65 66 67 68 67 67 66 66 67
34 31 25 29 38 41 37 32 32 26 26 28 28 28 44 43 45 48 47 51 52 53 53 55 54 55 56 55 56 57 57 57 59 61 62 62 63 64 65 66 67 66 66 67
35 28 20 27 33 37 32 35 35 33 31 27 24 28 46 45 45 46 45 48 51 53 53 54 55 54 54 55 55 56 56 57 58 60 60 59 60 61 61 62 63 64 63 65
41 30 27 21 27 29 29 31 33 31 18 22 28 30 38 39 40 43 44 46 48 50 51 52 52 53 54 54 54 55 55 56 57 58 59 58 58 59 60 61 61 60 63 63
34 24 29 31 31 30 30 29 30 28 30 23 29 29 35 39 40 42 44 46 47 48 49 50 50 51 53 53 54 53 53 54 55 55 56 56 57 58 58 58 59 58 59 60
33 23 29 24 31 30 28 30 30 31 31 31 32 31 38 41 42 43 42 44 45 46 47 48 49 50 51 51 52 52 52 52 53 53 53 55 55 55 55 56 57 57 57 57
30 28 24 21 30 29 18 28 31 33 34 33 29 33 37 38 40 41 41 43 43 45 46 46 48 48 49 50 51 50 50 52 51 51 52 53 53 52 53 54 54 53 53 54
29 28 26 19 26 7 30 37 37 34 35 35 36 37 38 39 40 43 44 42 43 44 45 46 46 46 47 48 49 49 49 49 48 49 50 50 50 50 51 51 51 51 52 51
33 29 16 12 19 27 30 34 33 31 31 36 34 37 38 40 39 39 45 45 43 43 44 44 45 46 46 46 46 46 46 46 46 46 46 47 47 46 47 48 48 49 50 50
32 31 22 16 12 11 30 37 40 37 25 37 39 37 37 37 28 33 42 43 43 44 44 43 44 44 44 44 44 43 42 42 43 44 44 45 44 44 44 45 46 47 48 49
25 25 17 19 17 24 35 39 40 26 27 36 37 37 36 32 36 40 41 41 42 42 42 43 42 41 41 42 42 40 41 40 42 43 43 42 43 43 44 43 44 45 45 46
26 21 20 24 19 15 38 37 31 34 35 37 36 38 38 38 39 39 40 40 40 39 40 41 39 39 40 41 40 39 38 41 42 41 41 41 42 42 43 41 41 42 42 42
23 30 24 27 26 34 37 36 37 38 36 37 36 39 38 37 38 39 38 38 38 38 38 39 37 37 39 40 40 38 38 40 40 40 40 40 41 41 42 40 39 39 39 39
31 33 28 30 32 33 36 37 38 39 37 39 39 39 38 37 37 36 36 35 36 36 36 37 37 36 36 39 39 39 39 41 40 38 38 39 38 38 39 40 39 38 38 38
30 31 30 29 32 34 36 37 38 38 39 39 39 39 39 36 34 34 33 33 34 39 39 39 38 37 36 37 37 39 39 40 37 37 37 37 37 37 37 38 37 38 39 39
30 30 28 28 34 34 34 37 38 37 37 39 37 36 35 34 32 33 32 33 35 36 38 37 37 37 35 36 36 37 38 38 35 33 34 34 34 35 35 35 35 38 37 38
MSLP
1018.29 1019.19 1020.12 1020.66 1020.75 1021.20 1021.41 1021.49 1021.42 1020.51 1019.34 1018.26 1017.31 1015.67 1015.33 1014.33 1013.51 1012.98 1012.08 1011.71 1010.73 1009.47 1007.96 1007.32 1007.06 1006.94 1007.28 1007.89 1008.38 1008.81 1009.27 1009.92 1011.25 1011.89 1012.34 1012.78 1012.68 1013.21 1013.38 1013.44 1013.74 1014.18 1014.56 1015.02
1019.22 1019.92 1020.51 1020.54 1020.66 1021.01 1021.07 1021.23 1021.22 1020.28 1019.40 1019.16 1017.65 1015.64 1015.32 1014.59 1013.84 1012.90 1012.27 1011.50 1010.87 1009.75 1008.34 1007.17 1006.66 1006.39 1006.20 1006.45 1006.67 1007.35 1007.91 1008.64 1009.03 1010.03 1010.78 1011.54 1012.14 1012.42 1012.61 1012.78 1012.84 1013.00 1013.47 1014.00
1019.96 1020.67 1020.36 1020.39 1020.65 1020.94 1020.94 1021.17 1021.11 1020.79 1019.71 1019.15 1018.49 1016.27 1015.49 1014.73 1013.72 1012.58 1011.87 1011.23 1010.56 1010.03 1009.09 1007.81 1006.94 1006.24 1005.78 1005.59 1005.64 1006.09 1006.43 1006.97 1007.69 1008.28 1009.60 1010.73 1011.50 1011.93 1012.23 1011.95 1011.73 1011.70 1012.23 1012.77
1020.52 1020.66 1020.57 1020.62 1020.89 1021.11 1021.01 1020.56 1020.54 1020.58 1020.49 1020.64 1019.60 1017.68 1016.59 1015.10 1013.97 1013.00 1012.04 1012.00 1011.39 1010.54 1009.50 1008.68 1007.55 1006.48 1005.86 1005.11 1004.95 1004.96 1005.22 1005.75 1006.32 1007.41 1008.41 1008.66 1009.00 1009.82 1009.38 1009.71 1010.35 1010.90 1011.31 1011.62
1021.33 1020.98 1020.82 1020.81 1020.89 1020.70 1020.60 1020.30 1020.45 1020.38 1020.89 1021.05 1019.86 1019.54 1017.82 1016.42 1015.65 1014.69 1013.84 1012.91 1012.25 1011.25 1010.26 1009.30 1008.47 1007.21 1006.41 1005.88 1005.00 1004.24 1004.28 1004.66 1005.02 1006.01 1006.34 1007.06 1007.57 1007.78 1008.45 1009.41 1009.91 1010.14 1010.34 1010.59
1021.38 1020.95 1020.95 1021.11 1020.66 1020.50 1020.32 1020.15 1020.20 1020.47 1021.06 1021.26 1020.27 1020.18 1019.43 1018.66 1017.91 1015.89 1014.73 1013.87 1012.99 1012.21 1011.39 1010.35 1009.48 1008.13 1007.01 1006.21 1005.67 1004.67 1003.57 1003.37 1003.90 1004.53 1005.24 1005.69 1006.01 1006.27 1007.30 1008.01 1008.60 1009.04 1009.03 1009.69
1022.23 1021.88 1021.63 1021.47 1021.17 1020.76 1020.94 1021.06 1021.86 1022.07 1022.07 1021.82 1020.59 1020.58 1020.94 1019.27 1018.12 1017.13 1016.22 1015.05 1014.00 1013.31 1012.33 1011.30 1010.08 1008.96 1008.17 1007.18 1006.10 1004.88 1003.52 1002.53 1002.99 1003.49 1003.92 1004.22 1004.62 1005.49 1005.74 1006.19 1006.85 1007.85 1008.66 1008.63
1024.00 1023.22 1022.78 1022.54 1022.52 1022.35 1022.10 1022.01 1022.63 1023.42 1023.30 1022.43 1021.04 1021.10 1020.57 1019.85 1018.71 1018.56 1017.10 1015.76 1015.18 1013.92 1013.45 1012.42 1011.48 1010.29 1009.71 1008.60 1007.28 1005.85 1004.58 1002.86 1002.77 1003.23 1003.49 1003.82 1003.99 1004.61 1005.14 1005.49 1005.96 1006.16 1006.50 1007.15
1024.70 1024.09 1023.19 1022.72 1022.58 1022.63 1022.25 1022.43 1022.61 1023.15 1023.58 1023.25 1021.86 1021.27 1020.32 1020.14 1019.14 1018.18 1017.14 1015.90 1015.63 1015.09 1014.86 1013.89 1012.69 1011.64 1011.26 1009.89 1008.65 1007.70 1006.46 1004.78 1003.83 1003.32 1003.88 1004.20 1004.67 1005.11 1005.21 1005.55 1005.79 1005.90 1006.23 1006.14
1024.88 1024.85 1023.92 1023.27 1022.73 1022.62 1022.75 1022.92 1023.15 1023.62 1024.07 1023.67 1022.35 1022.02 1021.40 1020.33 1019.60 1018.69 1018.19 1017.74 1016.44 1015.76 1015.56 1015.15 1014.29 1013.05 1012.21 1011.22 1010.13 1008.90 1007.81 1007.17 1005.85 1005.19 1004.14 1003.83 1004.19 1004.43 1004.73 1005.31 1005.69 1005.74 1006.03 1006.51
1025.06 1025.33 1024.75 1024.05 1023.85 1023.85 1023.78 1023.84 1024.03 1024.25 1024.68 1024.76 1023.65 1022.51 1021.30 1020.71 1019.82 1019.39 1018.83 1018.16 1017.62 1016.69 1016.10 1015.89 1015.16 1014.46 1012.99 1012.28 1011.29 1010.23 1009.32 1008.35 1007.18 1006.76 1005.76 1004.90 1004.38 1004.10 1004.21 1004.70 1005.06 1005.15 1004.95 1006.27
1025.52 1025.88 1025.77 1025.08 1024.22 1024.15 1024.37 1024.94 1025.25 1025.60 1025.80 1025.43 1024.51 1022.61 1021.50 1020.95 1020.46 1019.83 1019.36 1019.05 1018.38 1017.47 1016.79 1015.92 1015.74 1015.33 1014.15 1013.21 1012.34 1011.60 1010.66 1009.87 1009.34 1008.44 1007.53 1006.82 1005.81 1005.45 1005.18 1004.81 1004.86 1005.14 1005.52 1005.66
1025.63 1026.29 1026.41 1025.67 1025.09 1024.76 1025.10 1025.51 1026.06 1026.47 1026.41 1025.59 1024.87 1022.42 1021.20 1021.07 1020.79 1020.61 1020.17 1019.71 1019.07 1018.30 1017.40 1016.93 1016.66 1015.69 1014.74 1014.22 1013.34 1012.74 1012.28 1011.20 1010.32 1009.89 1009.10 1008.29 1007.41 1007.15 1006.74 1006.17 1005.64 1005.58 1005.14 1004.31
1025.67 1026.33 1026.46 1026.21 1025.81 1025.78 1025.92 1025.89 1026.25 1026.75 1026.90 1025.80 1024.25 1022.70 1022.01 1021.75 1021.57 1021.14 1020.62 1020.02 1019.54 1019.02 1018.64 1018.11 1017.32 1016.19 1014.96 1014.25 1014.71 1014.05 1013.12 1012.50 1011.67 1010.66 1010.51 1009.71 1009.09 1008.65 1008.25 1007.78 1007.33 1006.82 1006.04 1005.22
1026.25 1026.76 1026.88 1026.58 1026.23 1026.19 1025.98 1025.85 1025.97 1026.26 1025.96 1025.88 1024.02 1023.54 1022.79 1022.39 1022.04 1021.57 1021.19 1020.63 1020.01 1019.39 1018.86 1018.33 1017.66 1016.86 1016.26 1015.63 1015.41 1014.62 1014.07 1013.44 1012.83 1011.79 1011.34 1011.01 1010.00 1009.16 1008.58 1008.32 1007.62 1007.16 1006.94 1006.22
1026.80 1027.14 1027.50 1027.12 1026.36 1026.13 1025.80 1025.21 1025.25 1025.07 1024.94 1024.83 1024.21 1023.40 1022.87 1022.52 1022.06 1021.80 1021.54 1021.02 1020.45 1019.84 1019.24 1018.82 1018.28 1017.60 1017.12 1016.52 1016.05 1014.94 1014.69 1014.38 1013.05 1011.76 1012.49 1011.59 1010.84 1010.02 1009.15 1008.78 1008.04 1007.26 1007.63 1006.79
1027.27 1027.51 1028.12 1027.63 1026.92 1026.21 1025.28 1024.09 1024.04 1023.92 1023.86 1023.73 1023.67 1023.23 1022.84 1022.56 1022.33 1021.97 1021.69 1021.23 1020.86 1020.42 1019.96 1019.51 1019.19 1018.87 1018.13 1017.37 1016.71 1016.40 1015.95 1015.05 1013.59 1012.98 1012.75 1012.12 1011.08 1010.50 1010.13 1009.77 1008.93 1008.27 1007.36 1007.44
1027.31 1027.87 1028.26 1028.24 1027.27 1026.12 1024.03 1023.34 1023.26 1023.35 1023.38 1023.32 1023.28 1023.11 1022.89 1022.64 1022.26 1021.94 1021.61 1021.34 1021.12 1020.74 1020.28 1019.75 1019.17 1018.62 1018.38 1018.04 1017.36 1016.90 1016.92 1015.30 1014.36 1013.80 1013.69 1012.37 1012.08 1011.32 1010.92 1010.53 1009.55 1008.44 1008.07 1007.76
1026.90 1027.76 1028.45 1028.52 1027.78 1025.63 1023.59 1023.29 1023.22 1023.20 1023.40 1023.22 1023.23 1023.09 1022.87 1022.61 1022.36 1021.88 1021.60 1021.34 1021.22 1021.05 1020.76 1020.31 1019.86 1019.44 1018.87 1018.37 1018.15 1017.65 1016.13 1015.14 1014.64 1014.10 1013.82 1013.68 1013.10 1012.44 1011.39 1010.56 1009.81 1009.00 1008.33 1007.92
1027.21 1027.69 1028.28 1028.68 1028.01 1026.20 1023.44 1022.94 1022.83 1023.29 1023.45 1023.14 1023.05 1023.05 1022.97 1022.78 1022.74 1021.98 1021.45 1021.47 1021.41 1021.27 1020.99 1020.54 1020.11 1019.59 1019.03 1018.66 1018.25 1017.89 1017.36 1016.55 1015.54 1014.93 1014.33 1013.75 1013.25 1012.49 1010.95 1011.07 1010.14 1009.15 1008.82 1008.22
1027.36 1027.85 1027.93 1028.12 1027.38 1025.10 1022.78 1022.60 1022.81 1023.55 1023.53 1022.95 1023.03 1023.03 1022.98 1023.04 1022.55 1021.84 1021.69 1021.53 1021.56 1021.51 1021.25 1020.92 1020.56 1020.23 1019.77 1019.22 1018.79 1018.13 1017.47 1017.03 1016.74 1015.94 1014.86 1014.01 1013.41 1012.81 1011.91 1010.97 1010.30 1009.72 1009.03 1008.17
1025.42 1026.25 1026.84 1027.11 1026.57 1024.39 1022.15 1022.40 1022.68 1022.67 1022.66 1022.67 1022.75 1022.78 1022.66 1022.45 1022.14 1021.93 1021.80 1021.76 1021.70 1021.62 1021.45 1021.19 1020.88 1020.41 1019.99 1019.49 1018.79 1018.04 1017.28 1016.49 1015.95 1015.19 1014.62 1014.04 1013.30 1012.51 1011.69 1010.76 1010.12 1009.42 1009.16 1008.11
1024.53 1023.84 1024.37 1024.46 1023.20 1022.03 1021.52 1021.40 1021.48 1021.90 1022.52 1022.61 1022.70 1022.53 1022.46 1022.42 1022.14 1022.05 1022.04 1022.01 1021.89 1021.77 1021.57 1021.33 1021.13 1020.60 1019.97 1019.56 1019.10 1018.46 1017.69 1017.03 1016.01 1015.02 1014.39 1013.67 1012.86 1012.18 1011.42 1010.46 1009.61 1009.23 1008.31 1007.75
1023.53 1023.20 1023.38 1023.33 1021.78 1021.80 1021.69 1021.49 1021.55 1021.77 1022.16 1022.10 1022.25 1022.17 1022.05 1022.15 1022.13 1022.24 1022.33 1022.32 1022.14 1021.85 1021.56 1021.29 1020.97 1020.65 1020.07 1019.50 1019.01 1018.44 1017.53 1016.60 1015.64 1014.69 1013.81 1012.97 1012.14 1011.43 1010.74 1010.20 1009.65 1008.66 1008.00 1007.28
1023.12 1023.01 1022.72 1022.35 1021.52 1021.42 1021.17 1021.16 1021.30 1021.37 1021.56 1021.65 1021.73 1021.87 1021.88 1022.17 1022.46 1022.61 1022.59 1022.39 1022.08 1021.66 1021.35 1021.08 1020.73 1020.38 1019.86 1019.34 1018.70 1017.96 1017.20 1016.40 1015.50 1014.53 1013.50 1012.44 1011.52 1010.87 1009.75 1009.13 1008.34 1007.94 1006.69 1006.41
1022.00 1021.62 1021.96 1020.99 1020.68 1020.83 1020.74 1020.57 1020.76 1021.01 1021.03 1020.98 1021.32 1021.44 1021.92 1022.34 1022.63 1022.74 1022.70 1022.40 1022.05 1021.69 1021.25 1020.85 1020.50 1020.05 1019.58 1019.03 1018.35 1017.77 1017.10 1016.22 1015.22 1014.00 1012.91 1011.92 1010.80 1009.62 1008.69 1007.52 1006.26 1006.19 1005.52 1005.46
Wind_Speed
6 10 7 5 4 3 3 4 5 6 9 11 6 20 17 14 13 14 14 9 15 17 16 10 9 12 14 14 16 18 18 18 13 12 12 11 12 9 8 9 12 12 12 12
7 10 3 3 4 2 0 2 5 8 6 11 12 24 14 9 10 11 12 13 10 13 16 16 11 9 15 19 21 20 20 20 19 14 12 9 9 9 9 9 11 14 15 14
7 2 4 5 5 6 3 2 3 7 6 6 8 11 8 22 8 9 10 11 9 10 14 15 14 10 10 17 20 21 23 22 20 21 12 6 3 2 7 10 12 15 16 16
4 3 4 4 5 2 3 5 5 6 6 3 4 10 12 9 20 13 11 11 10 10 11 10 15 16 9 11 16 21 21 22 21 21 16 21 17 14 14 14 11 12 16 18
2 5 5 4 3 2 7 5 6 4 2 3 4 3 8 14 18 17 16 18 17 12 10 13 16 14 16 10 11 15 20 20 21 20 22 18 17 15 10 9 12 14 13 18
2 4 3 3 5 3 7 4 5 4 3 3 4 1 5 9 13 20 21 19 19 19 17 16 16 17 18 16 12 14 17 22 21 21 24 23 24 21 14 12 12 12 12 12
8 4 5 6 8 7 10 6 4 6 5 4 5 5 8 12 13 15 19 17 17 15 18 20 23 22 22 23 23 16 14 20 20 22 23 25 24 22 20 17 14 13 11 11
5 3 5 7 2 4 5 1 5 3 2 5 7 5 2 16 14 19 20 21 17 20 18 20 22 22 22 24 24 25 22 10 14 17 20 19 20 13 14 14 11 12 13 12
2 4 5 3 3 1 5 3 3 3 0 3 2 4 4 15 16 14 20 20 20 19 19 20 21 22 22 23 25 26 26 24 15 7 9 12 12 13 11 11 9 9 10 10
2 2 1 6 5 4 3 3 2 3 2 3 2 3 3 9 11 9 8 13 18 18 20 19 18 19 20 22 21 24 26 24 21 19 4 6 9 9 8 6 7 9 7 7
1 2 4 2 3 2 5 4 4 1 3 1 4 2 5 7 11 8 8 10 12 17 18 15 17 16 17 19 21 21 23 24 24 22 17 10 4 6 6 6 6 7 5 9
1 3 3 4 6 4 2 2 4 3 2 2 3 5 2 5 10 11 8 11 13 14 14 17 16 17 18 18 19 21 21 20 20 19 19 19 17 12 7 5 1 3 6 9
3 1 2 2 3 3 3 3 4 2 2 7 3 5 7 8 11 9 9 7 9 13 16 17 18 16 17 17 17 18 19 20 19 18 17 18 18 15 14 12 7 5 5 1
3 3 5 6 2 2 3 3 2 5 2 4 8 12 11 9 9 9 9 7 8 10 12 13 15 17 18 19 17 17 17 19 19 18 17 15 15 14 13 12 10 8 8 6
4 4 2 6 6 3 6 9 7 9 9 6 6 8 6 6 6 5 5 6 9 11 11 13 14 15 16 18 18 18 17 16 16 17 16 16 14 13 13 14 13 10 10 9
1 2 1 5 4 6 8 9 8 10 10 12 14 16 1 6 6 5 6 7 10 11 12 13 14 16 15 16 16 18 19 18 15 16 16 14 16 15 13 14 14 14 12 10
3 3 3 4 3 4 6 7 6 3 3 4 4 3 4 4 6 4 5 5 6 8 11 12 12 11 12 15 15 15 16 17 17 16 14 14 17 17 16 15 13 11 11 11
5 4 3 3 3 3 4 2 3 5 4 2 1 3 5 6 6 7 5 4 6 8 9 13 13 12 11 9 14 15 12 13 15 15 15 17 17 17 17 17 15 13 11 11
5 4 1 3 2 7 2 4 5 3 4 4 4 5 5 5 6 6 7 4 5 6 7 9 9 11 12 13 11 13 16 17 14 14 16 16 17 17 16 17 17 16 13 13
6 2 4 1 2 6 4 4 5 4 4 3 4 4 5 6 4 6 6 4 6 7 8 9 10 12 13 14 13 13 12 14 17 17 17 17 17 17 17 18 18 15 14 15
5 2 5 3 3 8 5 6 5 4 4 2 3 5 5 4 6 6 7 6 5 6 7 7 7 9 11 13 13 14 15 13 12 15 16 17 16 16 16 16 15 14 15 15
8 8 5 5 5 11 7 3 7 4 3 4 2 4 7 8 9 6 7 7 6 7 6 7 7 10 10 10 11 15 17 17 16 15 16 16 16 15 14 16 15 15 14 15
4 6 6 10 8 4 6 5 4 4 4 4 3 8 7 9 6 6 6 6 6 7 6 6 7 10 11 10 10 13 16 16 17 17 17 17 18 17 17 18 18 14 12 12
4 4 4 1 4 7 7 5 4 5 7 6 6 7 6 7 6 6 5 5 7 7 8 8 9 10 12 12 13 13 14 16 17 19 20 17 18 18 16 13 13 12 12 11
5 6 4 7 6 6 5 8 7 5 5 6 6 6 5 1 2 3 5 5 6 8 11 12 12 13 13 13 14 13 13 16 16 17 17 17 14 16 16 14 13 15 16 12
7 7 7 8 7 6 6 4 2 5 7 8 5 3 4 3 1 3 5 5 6 9 11 12 14 14 14 15 15 15 14 16 17 17 14 14 14 14 14 15 15 18 23 23
Wind_Direction
16 65 56 40 75 131 170 205 279 249 285 324 294 297 317 308 304 299 298 283 290 293 287 284 248 218 207 198 194 198 188 188 182 193 194 202 205 202 201 201 201 198 197 193
39 59 16 7 56 58 314 322 309 297 293 304 301 302 305 300 280 286 291 300 276 286 291 289 281 238 203 201 201 199 200 192 192 195 203 205 199 214 210 204 204 201 198 197
85 62 9 46 17 28 317 226 257 268 320 269 323 306 14 338 328 299 291 273 282 275 287 303 305 278 237 216 205 203 202 198 198 201 186 181 164 171 199 210 209 209 200 199
86 18 32 40 54 99 292 222 255 281 15 346 44 294 331 317 319 310 310 342 328 326 326 310 308 312 286 248 218 214 207 201 203 194 193 195 200 207 218 216 214 208 203 203
296 10 10 28 302 273 241 317 266 245 207 34 289 357 318 352 8 9 3 2 349 336 329 338 334 326 325 318 289 226 214 209 203 196 199 198 204 214 213 215 216 210 203 207
31 291 52 341 311 318 289 317 4 43 79 33 305 111 338 11 342 4 357 1 2 1 354 3 1 1 359 351 332 292 227 214 204 198 201 203 209 209 204 202 206 210 204 204
345 1 359 34 351 344 17 34 10 14 14 248 341 24 35 333 356 1 355 358 8 6 9 10 9 10 8 4 1 343 293 220 207 204 201 206 211 211 211 203 202 199 211 208
31 354 15 348 145 264 311 89 130 184 298 294 328 47 250 354 12 356 343 2 357 9 10 12 12 12 7 7 9 8 356 287 209 211 215 216 214 213 221 216 210 207 202 211
51 283 327 335 300 166 320 64 192 138 306 278 257 1 22 353 342 11 359 357 353 12 6 8 9 12 5 8 12 13 12 12 360 206 212 219 224 226 229 226 221 221 220 203
185 286 286 299 4 2 66 306 65 16 19 296 304 77 267 354 358 2 13 342 350 8 7 1 2 10 9 5 6 11 16 14 15 6 311 190 208 218 217 204 202 214 227 234
66 116 294 353 51 349 353 12 18 161 97 221 313 171 24 328 345 2 6 6 13 4 4 360 358 359 12 11 9 10 10 12 13 8 6 356 307 209 199 202 192 192 165 205
127 147 276 258 276 197 54 81 57 65 330 264 261 243 59 16 7 12 10 22 10 9 3 353 7 358 8 12 9 9 6 12 6 8 13 15 18 358 326 313 263 144 206 220
174 196 354 18 12 73 107 119 115 227 197 235 223 250 31 30 7 2 356 18 18 13 9 2 358 2 3 7 8 8 2 3 7 3 7 7 15 12 5 3 348 310 282 264
153 186 195 198 174 138 259 189 139 160 174 262 247 297 333 351 351 342 349 2 3 12 11 3 355 358 358 6 359 1 6 1 358 3 356 8 8 358 3 3 5 356 333 319
120 199 225 263 262 224 253 263 253 211 223 211 282 276 299 311 319 322 326 354 356 358 3 359 355 354 354 357 349 357 357 354 354 356 356 351 351 357 360 355 356 2 2 354
331 227 54 289 286 222 256 254 238 244 243 240 260 280 259 297 324 352 349 346 348 346 348 350 352 350 350 353 345 355 347 342 348 356 341 345 347 349 353 347 347 354 347 360
148 146 123 266 332 316 312 227 193 221 157 205 243 246 315 317 327 303 307 321 319 327 336 338 343 349 343 342 343 346 338 335 342 342 335 341 344 343 343 336 335 337 344 338
156 158 141 261 355 7 249 104 122 156 167 166 201 280 296 286 290 273 274 292 308 316 322 330 333 340 346 336 339 334 327 335 337 336 331 342 335 333 330 325 324 330 332 329
158 153 113 118 251 291 234 182 165 172 226 205 238 261 280 293 315 285 277 283 303 311 308 308 317 331 335 341 344 333 333 335 334 333 333 328 328 319 320 319 320 321 322 314
129 73 118 154 135 237 234 163 135 110 260 202 260 291 299 332 315 269 289 323 311 321 312 319 334 330 331 336 341 335 330 325 327 328 327 324 321 315 321 314 311 311 309 300
150 192 189 176 242 282 237 166 130 153 222 237 215 245 265 246 231 269 313 308 326 310 318 329 327 321 320 324 327 326 325 321 315 313 316 318 316 310 306 307 306 306 304 297
168 159 188 175 210 260 157 92 176 195 200 213 270 247 269 276 284 284 299 305 315 313 323 323 319 319 317 314 324 323 321 321 318 318 313 312 310 309 306 303 300 298 291 291
214 188 180 187 213 222 200 176 196 136 216 252 258 275 256 271 264 292 288 312 309 310 310 307 310 312 314 319 320 313 307 310 313 314 312 309 307 306 305 302 299 293 289 282
239 171 206 144 210 208 225 266 235 223 215 223 240 273 261 249 287 296 317 320 316 321 322 323 321 317 314 317 316 305 309 313 315 314 312 310 307 304 296 292 288 288 285 278
199 152 185 258 270 291 237 216 230 229 228 251 262 251 239 237 322 305 306 307 307 320 325 324 323 320 312 315 310 310 318 321 315 310 308 305 301 297 295 286 285 280 278 273
178 185 193 237 196 195 231 229 270 274 267 266 270 277 136 124 337 310 308 297 323 326 324 323 324 319 316 316 316 318 321 326 320 315 313 307 302 299 294 291 289 265 265 265